{"data":{"norad_id":68448,"epoch":"2026-05-25T03:30:17.811936Z","epoch_age_seconds":56219,"freshness":"FRESH","line1":"1 68448U 26067AJ  26145.14603949  .00003959  00000+0  19802-3 0  9993","line2":"2 68448  97.4593 104.0172 0004534 134.0820 226.0787 15.18001266  8446","mean_motion":15.18001266,"eccentricity":0.0004534,"inclination_deg":97.4593,"raan_deg":104.0172,"arg_perigee_deg":134.082,"mean_anomaly_deg":226.0787,"bstar":0.00019802,"rev_number":844,"period_min":94.861580965243,"perigee_km":508.75805417299,"apogee_km":515.00592339202,"semimajor_km":6890.0189887825,"source":"CELESTRAK","updated_at":"2026-05-25T13:38:07.841481Z"}}